Vorticity
9 9 28 48 15 6 1 11 23 -11 27 -38 -9 60 -67 19 6 4 3 4 2 1 5 7 5 5 8 10 11 8 5 5 4 5 5 6 5 4 5 6 6 6 6
13 19 14 37 40 6 7 2 14 4 -9 35 -1 -4 63 37 4 5 3 4 5 -2 5 5 7 5 7 8 9 9 7 5 5 4 4 7 5 4 6 6 6 6 6
15 9 18 19 45 23 2 4 8 16 17 -11 18 -47 6 -35 30 8 4 4 3 2 4 4 6 6 7 8 10 8 7 5 5 5 5 4 5 7 6 5 6 6 6
7 15 13 20 24 40 7 7 9 12 16 42 -5 6 -8 -42 47 -1 3 5 4 4 3 5 4 7 6 7 8 9 8 7 8 7 6 5 8 6 7 6 6 6 6
15 17 14 15 24 30 28 10 15 -3 15 8 -20 -4 61 -6 39 15 9 7 3 4 8 3 4 4 6 7 8 7 8 6 7 7 6 6 6 6 7 7 8 7 7
11 11 17 14 22 25 28 14 35 8 -0 -10 35 4 48 -13 -20 24 9 9 4 3 3 5 4 5 4 7 6 7 7 7 6 6 6 5 6 8 7 7 6 8 8
13 15 11 16 14 20 19 18 30 33 4 -3 31 20 -21 47 -12 46 5 8 4 4 3 4 3 3 4 5 7 8 6 6 5 6 7 6 6 6 8 7 7 6 6
17 14 13 16 21 9 21 11 15 46 12 -2 -7 29 32 30 33 -68 64 9 7 4 5 5 5 4 7 5 7 8 7 8 6 6 6 7 7 7 7 7 7 5 4
16 15 12 11 18 11 17 16 18 24 25 4 -12 4 60 19 30 -27 21 72 10 4 6 5 6 6 7 7 8 9 8 7 6 6 6 6 7 7 7 8 6 7 6
13 17 14 13 16 20 4 10 21 16 23 15 -22 19 19 16 -0 27 -4 36 21 4 5 3 7 5 8 8 9 8 9 6 7 5 6 7 6 7 6 6 8 7 4
8 13 16 14 12 16 24 9 16 19 21 17 8 -11 36 0 11 24 10 -9 -1 16 3 7 6 6 7 9 10 10 10 8 8 6 7 8 7 7 6 7 8 7 5
6 9 14 15 13 14 18 16 12 24 18 17 2 -2 6 32 -40 61 -6 83 -11 3 19 6 10 6 8 9 10 12 10 10 10 8 7 8 7 7 8 7 6 9 6
7 6 10 16 15 12 18 19 12 10 25 28 9 15 27 -6 43 2 18 43 42 19 19 13 10 5 7 10 12 11 10 12 10 11 10 8 7 7 8 7 7 9 6
10 7 6 10 17 15 12 13 17 11 13 29 14 9 16 15 20 -12 9 -63 37 -5 -2 31 14 3 5 9 11 10 9 9 10 11 10 9 8 8 8 8 8 8 7
16 13 6 7 13 16 13 13 15 9 16 19 23 15 3 13 14 36 21 17 35 32 50 -3 22 4 3 5 9 8 8 10 8 8 9 9 8 8 8 9 9 8 8
15 19 11 5 8 14 17 13 9 11 12 22 15 19 23 4 15 20 9 27 -29 9 37 22 16 -0 7 4 6 9 9 6 9 9 9 9 8 8 8 8 11 10 6
15 18 19 9 6 9 16 17 12 5 17 12 19 24 19 14 4 7 8 7 -7 16 -30 45 19 -2 30 -6 7 3 4 7 8 7 9 10 8 8 10 8 8 10 8
15 15 19 15 7 6 10 17 17 9 11 15 14 16 21 8 21 22 24 11 9 6 11 8 17 19 8 11 21 3 12 9 6 7 5 7 9 8 8 9 8 7 9
16 15 18 18 13 6 6 9 19 12 11 10 14 10 24 20 16 2 13 14 17 30 43 22 12 6 29 18 26 -3 9 6 12 5 7 7 7 7 6 7 8 8 9
15 13 15 19 17 11 7 6 10 18 12 13 13 9 9 22 18 18 20 17 -16 -2 20 10 14 52 19 -7 4 14 8 9 -4 -2 5 9 7 8 8 10 8 7 8
15 15 15 17 17 15 9 7 7 11 17 13 11 12 9 4 15 20 22 11 6 -2 14 -1 -8 28 21 38 53 22 33 -14 10 5 9 11 7 7 5 8 8 8 9
12 14 14 17 18 15 13 10 7 9 10 19 14 12 10 10 9 9 0 2 9 26 20 -1 22 1 -5 20 -0 2 21 30 22 7 14 16 1 -1 13 14 9 7 5
11 14 14 16 17 17 13 12 11 7 9 9 18 14 10 11 11 10 14 14 16 17 8 25 2 7 2 3 4 21 30 -16 -17 33 24 18 1 12 26 13 13 -2 15
10 13 14 14 16 17 14 12 11 10 8 10 10 17 15 14 10 11 10 13 5 14 18 16 7 11 9 13 11 16 18 42 -12 20 17 31 7 13 31 19 18 -11 -2
8 11 12 14 16 16 17 12 12 12 10 9 10 10 13 18 16 13 12 9 13 11 5 3 -0 -6 9 8 6 5 2 3 -2 7 -1 11 16 13 35 9 19 27 16
7 10 12 13 16 16 15 15 10 11 12 10 10 12 11 12 17 16 15 10 12 14 13 12 15 25 10 5 17 17 9 8 12 5 3 -1 -4 -1 4 11 22 21 17
Height
2971 2970 2968 2972 2978 2981 2985 2991 2996 3002 3007 3013 3024 3029 3032 3021 3049 3058 3068 3076 3083 3089 3095 3100 3106 3113 3118 3123 3128 3134 3139 3143 3149 3153 3157 3162 3166 3169 3173 3176 3178 3180 3182
2967 2965 2963 2963 2968 2972 2975 2982 2988 2996 3002 3011 3017 3019 3026 3019 3044 3055 3061 3071 3077 3083 3090 3094 3102 3108 3113 3118 3123 3129 3134 3139 3146 3150 3155 3159 3164 3165 3169 3173 3176 3179 3181
2961 2961 2958 2957 2959 2964 2966 2973 2980 2990 2994 3003 3007 3018 3020 3023 3039 3046 3055 3064 3072 3079 3085 3090 3097 3103 3109 3115 3120 3124 3129 3134 3141 3147 3151 3154 3158 3162 3166 3169 3173 3176 3179
2958 2956 2954 2951 2952 2955 2958 2963 2973 2984 2989 2996 3005 3011 3015 3011 3020 3037 3049 3059 3067 3074 3079 3086 3093 3099 3105 3109 3115 3120 3125 3130 3137 3143 3147 3150 3157 3160 3163 3166 3170 3173 3176
2954 2952 2950 2948 2946 2948 2954 2957 2965 2976 2983 2986 2996 3004 3008 3007 3011 3036 3043 3053 3061 3069 3074 3080 3088 3094 3099 3105 3110 3115 3121 3127 3131 3137 3143 3147 3152 3156 3159 3163 3167 3170 3173
2952 2950 2946 2944 2943 2943 2947 2952 2959 2971 2980 2986 2989 2996 2999 3009 3011 3029 3036 3045 3054 3061 3065 3074 3081 3087 3094 3101 3106 3111 3117 3122 3126 3132 3138 3142 3147 3152 3157 3160 3163 3168 3171
2950 2947 2944 2942 2941 2940 2942 2947 2954 2965 2972 2977 2983 2989 2998 3004 3010 3005 3023 3038 3044 3051 3057 3067 3074 3080 3088 3096 3102 3106 3111 3117 3122 3127 3133 3138 3143 3146 3150 3155 3159 3163 3166
2949 2945 2942 2939 2939 2938 2939 2944 2950 2959 2965 2973 2979 2986 2994 2997 3003 3003 3011 3027 3036 3044 3052 3061 3069 3076 3083 3090 3094 3099 3105 3110 3116 3121 3127 3132 3138 3142 3147 3152 3155 3157 3161
2948 2944 2941 2938 2937 2937 2938 2940 2945 2953 2960 2966 2973 2977 2982 2990 2996 3006 3012 3013 3026 3036 3045 3054 3061 3068 3075 3081 3087 3092 3097 3104 3109 3115 3121 3126 3132 3137 3141 3146 3149 3154 3158
2947 2943 2940 2938 2936 2936 2936 2938 2941 2947 2954 2960 2968 2974 2980 2985 2991 2995 3004 3010 3016 3025 3036 3045 3055 3062 3068 3073 3080 3084 3090 3096 3102 3107 3113 3120 3126 3132 3135 3140 3145 3149 3153
2946 2943 2940 2937 2936 2935 2934 2935 2938 2942 2948 2954 2962 2968 2975 2982 2986 2992 2999 3002 3003 3016 3027 3038 3047 3054 3060 3066 3072 3078 3084 3089 3095 3101 3107 3115 3120 3125 3130 3134 3139 3144 3149
2945 2942 2939 2936 2935 2934 2933 2933 2934 2938 2942 2947 2954 2961 2970 2975 2981 2984 2993 2995 3002 3009 3016 3029 3038 3046 3052 3058 3065 3071 3076 3081 3087 3095 3102 3108 3113 3118 3124 3128 3133 3138 3143
2943 2941 2938 2935 2933 2933 2933 2933 2932 2934 2937 2941 2947 2954 2960 2967 2973 2982 2988 2988 2992 2999 3007 3015 3026 3036 3043 3050 3057 3063 3069 3075 3081 3088 3095 3101 3106 3111 3117 3122 3127 3132 3136
2940 2938 2937 2934 2931 2931 2932 2932 2932 2932 2933 2936 2941 2948 2955 2959 2965 2973 2979 2978 2987 2992 3000 3007 3019 3027 3035 3043 3049 3055 3061 3067 3074 3080 3087 3093 3099 3105 3111 3115 3120 3125 3129
2938 2936 2934 2933 2931 2929 2930 2931 2930 2930 2931 2933 2938 2943 2948 2954 2959 2966 2975 2978 2983 2989 2990 2998 3007 3018 3026 3033 3039 3046 3052 3059 3066 3072 3079 3085 3091 3098 3103 3108 3113 3117 3121
2935 2932 2932 2930 2929 2927 2927 2928 2929 2929 2930 2930 2935 2940 2944 2949 2954 2961 2969 2976 2977 2979 2985 2991 2999 3007 3017 3024 3030 3038 3044 3051 3057 3063 3070 3076 3083 3087 3093 3098 3104 3110 3114
2933 2930 2928 2928 2927 2926 2925 2925 2927 2927 2927 2928 2931 2933 2939 2943 2950 2954 2962 2967 2969 2975 2978 2983 2989 2994 3000 3011 3020 3027 3035 3042 3050 3056 3062 3068 3074 3080 3085 3090 3095 3100 3104
2932 2928 2926 2925 2924 2924 2923 2922 2924 2923 2924 2925 2929 2931 2932 2937 2943 2949 2954 2957 2962 2967 2972 2979 2981 2987 2993 3003 3014 3022 3030 3035 3041 3047 3053 3060 3066 3071 3076 3081 3085 3089 3094
2931 2926 2923 2922 2921 2921 2920 2919 2920 2920 2921 2921 2925 2927 2927 2930 2934 2940 2945 2952 2956 2958 2964 2971 2976 2983 2990 2994 3002 3014 3020 3026 3032 3038 3044 3050 3055 3062 3067 3071 3075 3080 3085
2928 2924 2920 2919 2919 2918 2917 2917 2916 2917 2917 2917 2919 2921 2923 2924 2927 2933 2939 2946 2947 2953 2960 2963 2969 2975 2982 2986 2993 3002 3006 3013 3021 3026 3033 3039 3045 3052 3058 3060 3065 3068 3075
2927 2923 2919 2915 2915 2915 2914 2913 2913 2913 2913 2913 2914 2916 2918 2920 2922 2925 2930 2935 2941 2946 2951 2956 2964 2971 2974 2976 2983 2989 2993 2998 3006 3014 3021 3024 3032 3038 3045 3050 3054 3059 3068
2923 2920 2916 2913 2911 2911 2911 2910 2910 2910 2909 2910 2910 2911 2913 2916 2917 2921 2924 2929 2935 2939 2942 2946 2954 2960 2965 2969 2973 2977 2982 2987 2994 3001 3008 3013 3020 3026 3033 3039 3044 3050 3055
2920 2916 2913 2910 2908 2907 2906 2907 2906 2906 2906 2906 2907 2908 2909 2911 2912 2915 2918 2922 2926 2930 2934 2935 2948 2953 2956 2960 2967 2972 2977 2978 2982 2988 2995 3000 3006 3014 3021 3027 3032 3039 3043
2916 2913 2909 2906 2904 2902 2902 2902 2903 2902 2902 2902 2903 2904 2905 2906 2908 2910 2912 2914 2918 2920 2925 2929 2938 2944 2949 2950 2958 2964 2969 2973 2974 2978 2987 2991 2994 2999 3005 3012 3019 3025 3029
2912 2909 2905 2902 2900 2898 2897 2897 2897 2898 2898 2898 2899 2900 2901 2901 2903 2905 2907 2909 2910 2912 2916 2923 2929 2935 2938 2942 2948 2955 2959 2964 2967 2970 2974 2980 2985 2991 2992 2998 3004 3010 3015
2907 2904 2901 2898 2895 2894 2893 2892 2892 2893 2894 2894 2894 2896 2896 2897 2897 2898 2901 2902 2905 2907 2911 2914 2919 2925 2928 2933 2938 2943 2949 2953 2956 2961 2965 2968 2972 2978 2983 2987 2991 2996 3001